Location: Newark
(49.8969°N, 3.3422°E)
Time: 23:33:30
(UTC+00:00)

Explorer 7 - Pass Details

Date: 01 February 2020
Orbit: 485 x 679 km, 50.3° (Epoch: 24 February)

Event Time Altitude Azimuth Distance (km) Brightness Sun altitude
Rises 21:28:57 0° 257° (WSW) 2,603 - -45.3°
Reaches altitude 10° 21:31:10 10° 257° (WSW) 1,699 - -45.6°
Maximum altitude 21:35:00 86° 169° (S) 495 - -46.1°
Drops below altitude 10° 21:38:45 10° 81° (E) 1,669 - -46.6°
Sets 21:40:55 0° 81° (E) 2,552 - -46.9°
